| time (UTC) | temp F | wind direction | speed MPH | gust MPH | rain 1hr in | rain 24hr in | rain mn in | humidity % | barometer mb |
| 20260904013051 | 59 | 277 | 12.0 | 20.0 | 0.00 | 0.00 | 0.00 | 54 | 1006.8 |
| 20260904011553 | 60 | 237 | 11.0 | 25.0 | 0.00 | 0.00 | 0.00 | 53 | 1006.8 |
| 20260904010058 | 60 | 229 | 16.0 | 22.0 | 0.00 | 0.00 | 0.00 | 52 | 1006.7 |
| 20260904004552 | 61 | 214 | 12.0 | 23.0 | 0.00 | 0.00 | 0.00 | 52 | 1006.7 |
| 20260904003056 | 62 | 232 | 16.0 | 24.0 | 0.00 | 0.00 | 0.00 | 50 | 1006.8 |
| 20260904001548 | 63 | 232 | 14.0 | 24.0 | 0.00 | 0.00 | 0.00 | 49 | 1006.9 |
| 20260904000043 | 62 | 231 | 13.0 | 22.0 | 0.00 | 0.00 | 0.00 | 50 | 1007.0 |
| 20260903234542 | 62 | 228 | 14.0 | 27.0 | 0.00 | 0.00 | 0.00 | 50 | 1007.2 |
| 20260903233049 | 62 | 229 | 18.0 | 28.0 | 0.00 | 0.00 | 0.00 | 51 | 1006.7 |
| 20260903231540 | 63 | 249 | 19.0 | 25.0 | 0.00 | 0.00 | 0.00 | 48 | 1006.7 |
| 20260903230045 | 64 | 215 | 19.0 | 28.0 | 0.00 | 0.00 | 0.00 | 47 | 1006.7 |
| 20260903224538 | 64 | 223 | 22.0 | 29.0 | 0.00 | 0.00 | 0.00 | 47 | 1006.8 |
| 20260903223039 | 65 | 231 | 17.0 | 30.0 | 0.00 | 0.00 | 0.00 | 46 | 1007.0 |
| 20260903221537 | 65 | 237 | 18.0 | 30.0 | 0.00 | 0.00 | 0.00 | 45 | 1007.2 |
| 20260903220042 | 65 | 224 | 21.0 | 30.0 | 0.00 | 0.00 | 0.00 | 45 | 1007.1 |
| 20260903214537 | 66 | 207 | 22.0 | 32.0 | 0.00 | 0.00 | 0.00 | 44 | 1007.1 |
| 20260903213034 | 66 | 233 | 26.0 | 37.0 | 0.00 | 0.00 | 0.00 | 44 | 1006.6 |
| 20260903211533 | 66 | 236 | 27.0 | 35.0 | 0.00 | 0.00 | 0.00 | 43 | 1006.5 |
| 20260903210032 | 63 | 244 | 25.0 | 33.0 | 0.00 | 0.00 | 0.00 | 46 | 1006.8 |
| 20260903204532 | 65 | 236 | 21.0 | 30.0 | 0.00 | 0.00 | 0.00 | 44 | 1007.4 |
| 20260903203027 | 65 | 243 | 20.0 | 32.0 | 0.00 | 0.00 | 0.00 | 44 | 1007.8 |
| 20260903201526 | 65 | 234 | 20.0 | 30.0 | 0.00 | 0.00 | 0.00 | 43 | 1008.1 |
| 20260903200026 | 65 | 215 | 18.0 | 26.0 | 0.00 | 0.00 | 0.00 | 43 | 1008.1 |
| 20260903194524 | 65 | 217 | 15.0 | 25.0 | 0.00 | 0.00 | 0.00 | 44 | 1008.4 |
| 20260903193023 | 64 | 244 | 16.0 | 26.0 | 0.00 | 0.00 | 0.00 | 43 | 1008.7 |
| 20260903191520 | 66 | 230 | 18.0 | 26.0 | 0.00 | 0.00 | 0.00 | 41 | 1008.7 |
| 20260903190019 | 65 | 216 | 16.0 | 22.0 | 0.00 | 0.00 | 0.00 | 41 | 1009.2 |
| 20260903184517 | 65 | 289 | 14.0 | 21.0 | 0.00 | 0.00 | 0.00 | 41 | 1009.6 |
| 20260903183014 | 64 | 233 | 17.0 | 25.0 | 0.00 | 0.00 | 0.00 | 41 | 1009.9 |
| 20260903181512 | 64 | 240 | 15.0 | 26.0 | 0.00 | 0.00 | 0.00 | 40 | 1010.0 |
| 20260903180011 | 63 | 248 | 15.0 | 26.0 | 0.00 | 0.00 | 0.00 | 42 | 1009.8 |
| 20260903174510 | 63 | 246 | 16.0 | 23.0 | 0.00 | 0.00 | 0.00 | 42 | 1010.2 |
| 20260903173008 | 61 | 212 | 16.0 | 24.0 | 0.00 | 0.00 | 0.00 | 45 | 1010.4 |
| 20260903171508 | 61 | 230 | 16.0 | 25.0 | 0.00 | 0.00 | 0.00 | 45 | 1010.3 |
| 20260903170014 | 62 | 212 | 7.0 | 15.0 | 0.00 | 0.00 | 0.00 | 37 | 1010.7 |
| 20260903164507 | 63 | 160 | 3.0 | 12.0 | 0.00 | 0.00 | 0.00 | 39 | 1010.7 |
| 20260903163007 | 62 | 143 | 2.0 | 9.0 | 0.00 | 0.00 | 0.00 | 41 | 1010.8 |
| 20260903161501 | 60 | 154 | 5.0 | 12.0 | 0.00 | 0.00 | 0.00 | 40 | 1010.8 |
| 20260903160100 | 60 | 243 | 14.0 | 22.0 | 0.00 | 0.00 | 0.00 | 41 | 1010.9 |
| 20260903154556 | 58 | 252 | 11.0 | 22.0 | 0.00 | 0.00 | 0.00 | 40 | 1011.0 |
| 20260903153054 | 57 | 237 | 15.0 | 23.0 | 0.00 | 0.00 | 0.00 | 41 | 1011.1 |
| 20260903151553 | 57 | 236 | 17.0 | 26.0 | 0.00 | 0.00 | 0.00 | 40 | 1011.1 |
| 20260903150107 | 56 | 198 | 18.0 | 28.0 | 0.00 | 0.00 | 0.00 | 40 | 1011.1 |
| 20260903144549 | 56 | 239 | 19.0 | 29.0 | 0.00 | 0.00 | 0.00 | 39 | 1011.1 |
| 20260903143048 | 56 | 213 | 12.0 | 21.0 | 0.00 | 0.00 | 0.00 | 39 | 1011.2 |
| 20260903141548 | 55 | 222 | 15.0 | 28.0 | 0.00 | 0.00 | 0.00 | 41 | 1010.9 |
| 20260903140047 | 55 | 227 | 20.0 | 28.0 | 0.00 | 0.00 | 0.00 | 41 | 1010.8 |
| 20260903134556 | 55 | 225 | 18.0 | 28.0 | 0.00 | 0.00 | 0.00 | 41 | 1010.7 |
| 20260903133045 | 55 | 212 | 19.0 | 29.0 | 0.00 | 0.00 | 0.00 | 42 | 1010.6 |
| 20260903131543 | 55 | 225 | 19.0 | 32.0 | 0.00 | 0.00 | 0.00 | 42 | 1010.4 |
| 20260903130043 | 55 | 261 | 20.0 | 29.0 | 0.00 | 0.00 | 0.00 | 41 | 1010.4 |
| 20260903124550 | 55 | 212 | 16.0 | 22.0 | 0.00 | 0.00 | 0.00 | 40 | 1010.8 |
| 20260903123040 | 55 | 226 | 17.0 | 26.0 | 0.00 | 0.00 | 0.00 | 39 | 1010.9 |
| 20260903121538 | 55 | 222 | 14.0 | 25.0 | 0.00 | 0.00 | 0.00 | 39 | 1011.4 |
| 20260903120040 | 56 | 243 | 17.0 | 24.0 | 0.00 | 0.00 | 0.00 | 38 | 1011.5 |
| 20260903114540 | 56 | 238 | 17.0 | 25.0 | 0.00 | 0.00 | 0.00 | 38 | 1011.4 |
| 20260903113037 | 56 | 247 | 17.0 | 24.0 | 0.00 | 0.00 | 0.00 | 39 | 1011.4 |
| 20260903111534 | 56 | 221 | 20.0 | 25.0 | 0.00 | 0.00 | 0.00 | 40 | 1011.4 |
| 20260903110034 | 56 | 212 | 18.0 | 27.0 | 0.00 | 0.00 | 0.00 | 41 | 1011.5 |
| 20260903104533 | 56 | 221 | 21.0 | 27.0 | 0.00 | 0.00 | 0.00 | 43 | 1011.6 |
| 20260903103031 | 55 | 236 | 19.0 | 29.0 | 0.00 | 0.00 | 0.00 | 45 | 1011.5 |
| 20260903101529 | 55 | 214 | 19.0 | 28.0 | 0.00 | 0.00 | 0.00 | 45 | 1011.2 |
| 20260903100033 | 55 | 221 | 23.0 | 32.0 | 0.00 | 0.00 | 0.00 | 46 | 1010.9 |
| 20260903094527 | 55 | 224 | 25.0 | 33.0 | 0.00 | 0.00 | 0.00 | 47 | 1010.5 |
| 20260903093024 | 55 | 221 | 25.0 | 33.0 | 0.00 | 0.00 | 0.00 | 46 | 1010.7 |
| 20260903091523 | 55 | 233 | 20.0 | 34.0 | 0.00 | 0.00 | 0.00 | 48 | 1011.0 |
| 20260903090020 | 55 | 221 | 19.0 | 28.0 | 0.00 | 0.00 | 0.00 | 47 | 1011.1 |
| 20260903084537 | 55 | 246 | 15.0 | 30.0 | 0.00 | 0.00 | 0.00 | 48 | 1011.4 |
| 20260903083017 | 54 | 229 | 6.0 | 20.0 | 0.00 | 0.00 | 0.00 | 50 | 1011.7 |
| 20260903081515 | 54 | 217 | 10.0 | 20.0 | 0.00 | 0.00 | 0.00 | 53 | 1011.9 |
| 20260903080014 | 54 | 278 | 11.0 | 29.0 | 0.00 | 0.00 | 0.00 | 54 | 1012.1 |
| 20260903074512 | 54 | 203 | 18.0 | 29.0 | 0.00 | 0.00 | 0.00 | 53 | 1011.4 |
| 20260903073010 | 55 | 211 | 12.0 | 21.0 | 0.00 | 0.00 | 0.00 | 53 | 1012.3 |
| 20260903071507 | 55 | 241 | 13.0 | 24.0 | 0.00 | 0.00 | 0.00 | 51 | 1012.2 |
| 20260903070003 | 55 | 233 | 19.0 | 31.0 | 0.00 | 0.00 | 0.00 | 50 | 1011.7 |
| 20260903064503 | 56 | 222 | 24.0 | 36.0 | 0.00 | 0.00 | 0.00 | 49 | 1011.1 |
| 20260903063003 | 55 | 232 | 23.0 | 36.0 | 0.00 | 0.00 | 0.00 | 49 | 1011.0 |
| 20260903061501 | 56 | 237 | 26.0 | 38.0 | 0.00 | 0.00 | 0.00 | 48 | 1010.6 |
| 20260903060100 | 56 | 224 | 26.0 | 37.0 | 0.00 | 0.00 | 0.00 | 47 | 1010.9 |
| 20260903060002 | 56 | 244 | 26.0 | 37.0 | 0.00 | 0.00 | 0.00 | 47 | 1010.7 |
| 20260903054601 | 56 | 241 | 22.0 | 31.0 | 0.00 | 0.00 | 0.00 | 48 | 1011.4 |
| 20260903053115 | 56 | 212 | 24.0 | 34.0 | 0.00 | 0.00 | 0.00 | 48 | 1011.5 |
| 20260903051558 | 56 | 218 | 23.0 | 35.0 | 0.00 | 0.00 | 0.00 | 48 | 1012.0 |
| 20260903050104 | 56 | 233 | 24.0 | 33.0 | 0.00 | 0.00 | 0.00 | 48 | 1012.3 |
| 20260903044602 | 56 | 227 | 24.0 | 32.0 | 0.00 | 0.00 | 0.00 | 50 | 1012.0 |
| 20260903043110 | 56 | 233 | 24.0 | 34.0 | 0.00 | 0.00 | 0.00 | 50 | 1011.8 |
| 20260903041558 | 56 | 243 | 22.0 | 32.0 | 0.00 | 0.00 | 0.00 | 51 | 1011.8 |
| 20260903040056 | 56 | 246 | 22.0 | 30.0 | 0.00 | 0.00 | 0.00 | 51 | 1011.6 |
| 20260903034606 | 56 | 222 | 19.0 | 27.0 | 0.00 | 0.00 | 0.00 | 51 | 1012.1 |
| 20260903033054 | 56 | 230 | 17.0 | 25.0 | 0.00 | 0.00 | 0.00 | 51 | 1012.1 |
| 20260903031611 | 57 | 238 | 14.0 | 23.0 | 0.00 | 0.00 | 0.00 | 51 | 1012.0 |
| 20260903030053 | 57 | 219 | 14.0 | 22.0 | 0.00 | 0.00 | 0.00 | 50 | 1011.9 |
| 20260903024552 | 57 | 252 | 16.0 | 22.0 | 0.00 | 0.00 | 0.00 | 49 | 1011.9 |
| 20260903023051 | 58 | 252 | 14.0 | 21.0 | 0.00 | 0.00 | 0.00 | 48 | 1011.8 |
| 20260903021553 | 59 | 249 | 14.0 | 20.0 | 0.00 | 0.00 | 0.00 | 45 | 1011.8 |
| 20260903020050 | 60 | 252 | 15.0 | 22.0 | 0.00 | 0.00 | 0.00 | 44 | 1011.9 |
| 20260903014556 | 61 | 231 | 11.0 | 18.0 | 0.00 | 0.00 | 0.00 | 41 | 1011.8 |